Clarksdale Fletcher Field Air, MS

9:26 PM CST on November 16, 2019 (GMT -0600)
Fletcher

Weather History for KCKM - September, 2019

Change the Weather History Date:

Sunday, September 22, 2019

  Actual Average (WUND) Record (WUND)
Temperature  
Mean Temperature 78 °F -  
Max Temperature 91 °F - - (-1)
Min Temperature 66 °F - - (-1)
Cooling Degree Days 14    
Growing Degree Days 28 (Base 50)    
Moisture  
Dew Point 67 °F    
Average Humidity 69    
Maximum Humidity 100    
Minimum Humidity 43    
Precipitation  
Precipitation 0.00 in - - ()
Sea Level Pressure  
Sea Level Pressure 30.08 in    
Wind  
Wind Speed 5 mph ()    
Max Wind Speed 13 mph    
Max Gust Speed 21 mph    
Visibility 10.0 miles    
Events      
Averages and records for this station are not official NWS values.
T = Trace of Precipitation, MM = Missing Value Source: Averaged Metar Reports

Daily Weather History Graph

Daily Weather History Graph

Search for Another Location

Airport or City:

Astronomy

Sep. 22, 2019 Rise Set
Actual Time 6:49 AM CDT 6:59 PM CDT
Civil Twilight 6:24 AM CDT 7:24 PM CDT
Nautical Twilight 5:55 AM CDT 7:53 PM CDT
Astronomical Twilight 5:26 AM CDT 8:22 PM CDT
Moon No Moon Rise 2:38 PM CDT (9/22)
Length of Visible Light 12h 59m
Length of Day
12h 09m
Last Quarter, 44% of the Moon is Illuminated
Sep 22
Last Quarter
Sep 28
New
Oct 5
First Quarter
Oct 13
Full
Oct 21
Last Quarter

Hourly Weather History & Observations

Time (CDT) Temp. Heat Index Dew Point Humidity Pressure Visibility Wind Dir Wind Speed Gust Speed Precip Events Conditions
12:35 AM 71.6 °F - 64.4 °F 78% 30.11 in 10.0 mi SE 5.8 mph - N/A   Unknown
12:55 AM 69.8 °F - 64.4 °F 83% 30.11 in 10.0 mi Calm Calm - N/A   Unknown
1:15 AM 69.8 °F - 64.4 °F 83% 30.11 in 10.0 mi SE 5.8 mph - N/A   Unknown
1:55 AM 69.8 °F - 64.4 °F 83% 30.11 in 10.0 mi SE 4.6 mph - N/A   Unknown
2:15 AM 69.8 °F - 64.4 °F 83% 30.11 in 10.0 mi Calm Calm - N/A   Unknown
2:35 AM 69.8 °F - 64.4 °F 83% 30.11 in 10.0 mi SSE 5.8 mph - N/A   Unknown
2:55 AM 69.8 °F - 64.4 °F 83% 30.10 in 10.0 mi SSE 5.8 mph - N/A   Unknown
3:35 AM 68.0 °F - 64.4 °F 88% 30.10 in 10.0 mi Calm Calm - N/A   Unknown
3:55 AM 69.8 °F - 66.2 °F 88% 30.10 in 10.0 mi Calm Calm - N/A   Unknown
4:15 AM 68.0 °F - 66.2 °F 94% 30.10 in 10.0 mi Calm Calm - N/A   Unknown
4:35 AM 68.0 °F - 66.2 °F 94% 30.10 in 10.0 mi Calm Calm - N/A   Unknown
4:55 AM 68.0 °F - 66.2 °F 94% 30.10 in 10.0 mi Calm Calm - N/A   Unknown
5:15 AM 66.2 °F - 66.2 °F 100% 30.11 in 10.0 mi Calm Calm - N/A   Unknown
5:35 AM 66.2 °F - 66.2 °F 100% 30.11 in 10.0 mi Calm Calm - N/A   Unknown
5:55 AM 66.2 °F - 66.2 °F 100% 30.11 in 10.0 mi Calm Calm - N/A   Unknown
6:35 AM 68.0 °F - 68.0 °F 100% 30.11 in 10.0 mi Calm Calm - N/A   Unknown
6:55 AM 66.2 °F - 66.2 °F 100% 30.12 in 10.0 mi Calm Calm - N/A   Unknown
7:15 AM 66.2 °F - 66.2 °F 100% 30.12 in 10.0 mi Calm Calm - N/A   Unknown
7:55 AM 69.8 °F - 69.8 °F 100% 30.13 in 10.0 mi Calm Calm - N/A   Unknown
8:15 AM 71.6 °F - 71.6 °F 100% 30.14 in 10.0 mi South 4.6 mph - N/A   Unknown
8:35 AM 75.2 °F - 73.4 °F 94% 30.14 in 10.0 mi South 8.1 mph - N/A   Unknown
9:15 AM 78.8 °F - 73.4 °F 83% 30.14 in 10.0 mi South 8.1 mph - N/A   Unknown
9:35 AM 80.6 °F 84.6 °F 71.6 °F 74% 30.14 in 10.0 mi South 11.5 mph - N/A   Unknown
9:55 AM 82.4 °F 87.2 °F 71.6 °F 70% 30.15 in 10.0 mi SSW 9.2 mph - N/A   Unknown
10:15 AM 82.4 °F 87.2 °F 71.6 °F 70% 30.14 in 10.0 mi SSW 12.7 mph - N/A   Unknown
10:35 AM 84.2 °F 88.4 °F 69.8 °F 62% 30.14 in 10.0 mi South 12.7 mph 20.7 mph N/A   Unknown
10:55 AM 86.0 °F 90.4 °F 69.8 °F 58% 30.13 in 10.0 mi South 12.7 mph - N/A   Unknown
11:15 AM 86.0 °F 90.4 °F 69.8 °F 58% 30.13 in 10.0 mi SSW 11.5 mph 17.3 mph N/A   Unknown
11:35 AM 86.0 °F 89.4 °F 68.0 °F 55% 30.12 in 10.0 mi South 10.4 mph 19.6 mph N/A   Unknown
11:55 AM 86.0 °F 89.4 °F 68.0 °F 55% 30.12 in - South 11.5 mph 19.6 mph N/A   Unknown
12:15 PM 87.8 °F 90.4 °F 66.2 °F 49% 30.11 in 10.0 mi SW 12.7 mph 18.4 mph N/A   Unknown
12:35 PM 87.8 °F 90.4 °F 66.2 °F 49% 30.10 in 10.0 mi South 11.5 mph 19.6 mph N/A   Unknown
12:55 PM 89.6 °F 93.4 °F 68.0 °F 49% 30.10 in 10.0 mi South 11.5 mph - N/A   Unknown
1:15 PM 89.6 °F 93.4 °F 68.0 °F 49% 30.09 in 10.0 mi South 12.7 mph - N/A   Unknown
1:35 PM 89.6 °F 92.2 °F 66.2 °F 46% 30.08 in 10.0 mi South 11.5 mph - N/A   Unknown
1:55 PM 91.4 °F 94.0 °F 66.2 °F 43% 30.07 in 10.0 mi South 11.5 mph - N/A   Unknown
2:15 PM 89.6 °F 92.2 °F 66.2 °F 46% 30.06 in 10.0 mi SSE 12.7 mph 18.4 mph N/A   Unknown
2:35 PM 89.6 °F 91.1 °F 64.4 °F 43% 30.05 in 10.0 mi SSW 10.4 mph 18.4 mph N/A   Unknown
2:55 PM 89.6 °F 92.2 °F 66.2 °F 46% 30.04 in 10.0 mi SSE 10.4 mph 17.3 mph N/A   Unknown
3:15 PM 89.6 °F 92.2 °F 66.2 °F 46% 30.03 in 10.0 mi South 10.4 mph - N/A   Unknown
3:55 PM 89.6 °F 92.2 °F 66.2 °F 46% 30.02 in 10.0 mi South 9.2 mph - N/A   Unknown
4:35 PM 89.6 °F 91.1 °F 64.4 °F 43% 30.02 in 10.0 mi South 6.9 mph 15.0 mph N/A   Unknown
4:55 PM 89.6 °F 91.1 °F 64.4 °F 43% 30.02 in 10.0 mi South 8.1 mph - N/A   Unknown
5:15 PM 87.8 °F 89.4 °F 64.4 °F 46% 30.02 in 10.0 mi South 8.1 mph - N/A   Unknown
5:35 PM 87.8 °F 90.4 °F 66.2 °F 49% 30.02 in 10.0 mi South 9.2 mph - N/A   Unknown
5:55 PM 87.8 °F 90.4 °F 66.2 °F 49% 30.02 in 10.0 mi SSE 6.9 mph - N/A   Unknown
6:15 PM 86.0 °F 88.2 °F 66.2 °F 51% 30.02 in 10.0 mi SE 6.9 mph - N/A   Unknown
6:35 PM 86.0 °F 88.2 °F 66.2 °F 51% 30.02 in 10.0 mi SE 4.6 mph - N/A   Unknown
6:55 PM 84.2 °F 86.6 °F 66.2 °F 55% 30.02 in 10.0 mi SE 5.8 mph - N/A   Unknown
7:15 PM 84.2 °F 86.6 °F 66.2 °F 55% 30.03 in 10.0 mi SE 4.6 mph - N/A   Unknown
7:35 PM 82.4 °F 84.6 °F 66.2 °F 58% 30.03 in 10.0 mi SE 5.8 mph - N/A   Unknown
7:55 PM 82.4 °F 84.6 °F 66.2 °F 58% 30.03 in 10.0 mi SE 6.9 mph - N/A   Unknown
8:15 PM 80.6 °F 82.7 °F 66.2 °F 61% 30.03 in 10.0 mi Calm Calm - N/A   Unknown
8:35 PM 78.8 °F - 66.2 °F 65% 30.03 in 10.0 mi SE 5.8 mph - N/A   Unknown
9:15 PM 78.8 °F - 66.2 °F 65% 30.05 in 10.0 mi SE 6.9 mph - N/A   Unknown
9:35 PM 78.8 °F - 68.0 °F 69% 30.05 in 10.0 mi SSE 8.1 mph - N/A   Unknown
10:15 PM 77.0 °F - 68.0 °F 74% 30.05 in 10.0 mi SSE 6.9 mph - N/A   Unknown
10:55 PM 77.0 °F - 68.0 °F 74% 30.05 in 10.0 mi SSE 5.8 mph - N/A   Unknown
11:15 PM 75.2 °F - 68.0 °F 78% 30.05 in 10.0 mi SSE 3.5 mph - N/A   Unknown
11:35 PM 75.2 °F - 69.8 °F 83% 30.05 in 10.0 mi Calm Calm - N/A   Unknown
11:55 PM 75.2 °F - 68.0 °F 78% 30.04 in 10.0 mi Calm Calm - N/A   Unknown